Cape Coral Emergency Operations FL US WEATHERSTEM current weather conditions

sailwx.info

Wind from 235 at 1 knots gusting 6

Air temperature 31.0° C
Dewpoint 24.9° C

Last reported at 2020-Aug-07 00:00 UTC.
Time now 2020-Aug-07 01:08 UTC

Location: N 26°38' W 081°57'.
View on Google Maps.

See reports from other nearby stations

  
Tides and Currents Weather Stations Pressure Air Temp Water Temp Dewpoint Dewpoint Depression Visibility Wind Speed Wind Dir Waves Ship Positions
date/time (UTC)wind fromknots sea level pressurealtimeterstation pressurevisibilityair tempwater tempwave heightnotes
2020-Aug-07 00:00 235 1 gusting 6 31.0
2020-Aug-06 23:50 171 4 gusting 6 31.1
2020-Aug-06 23:30 188 7 gusting 8 31.3
2020-Aug-06 23:20 232 2 gusting 7 31.4
2020-Aug-06 23:00 213 5 gusting 8 31.4
2020-Aug-06 22:50 264 1 gusting 8 31.7
2020-Aug-06 22:30 223 8 gusting 9 31.8
2020-Aug-06 22:20 182 5 gusting 7 32.1
2020-Aug-06 22:10 236 5 gusting 7 32.1
2020-Aug-06 22:00 244 6 gusting 8 32.2
2020-Aug-06 21:50 190 4 gusting 7 32.3
2020-Aug-06 21:30 219 1 gusting 12 32.6
2020-Aug-06 21:20 263 1 gusting 9 32.8
2020-Aug-06 21:10 232 4 gusting 9 33.1
2020-Aug-06 21:00 211 4 gusting 10 32.9
2020-Aug-06 20:50 198 7 gusting 11 32.8
2020-Aug-06 20:30 222 6 gusting 9 33.5
2020-Aug-06 20:20 205 6 gusting 9 32.8
2020-Aug-06 20:10 155 6 gusting 9 33.0
2020-Aug-06 20:00 221 0 gusting 8 33.0
2020-Aug-06 19:50 219 3 gusting 10 33.2
2020-Aug-06 19:30 191 2 gusting 12 32.7
2020-Aug-06 19:20 209 6 gusting 11 32.8
2020-Aug-06 19:10 196 4 gusting 8 33.8
2020-Aug-06 19:00 267 0 gusting 9 33.5
2020-Aug-06 18:50 281 5 gusting 8 33.7
2020-Aug-06 18:30 221 5 gusting 10 32.8
2020-Aug-06 18:20 223 4 gusting 10 32.8
2020-Aug-06 18:10 192 5 gusting 10 32.6
2020-Aug-06 18:00 218 7 gusting 9 32.7
2020-Aug-06 17:50 229 5 gusting 10 32.4
2020-Aug-06 17:30 208 3 gusting 9 33.2
2020-Aug-06 17:20 221 5 gusting 9 32.8
2020-Aug-06 17:10 175 3 gusting 9 32.8
2020-Aug-06 17:00 219 5 gusting 9 32.8
2020-Aug-06 16:50 179 3 gusting 9 33.0
2020-Aug-06 16:30 196 6 gusting 7 32.8
2020-Aug-06 16:20 213 2 gusting 7 32.8
2020-Aug-06 16:10 259 3 gusting 6 32.6
2020-Aug-06 16:00 133 3 gusting 6 31.4
2020-Aug-06 15:50 171 5 gusting 6 31.9
2020-Aug-06 15:30 115 1 gusting 6 30.8
2020-Aug-06 02:30 140 5 gusting 5 22.8
2020-Aug-06 02:20 130 5 gusting 5 23.3
2020-Aug-06 02:10 140 5 gusting 5 23.3
2020-Aug-06 02:00 130 6 gusting 6 22.8
2020-Aug-06 01:30 090 8 gusting 8 22.8
2020-Aug-06 01:20 090 9 gusting 9 22.8
2020-Aug-06 01:10 090 9 gusting 14 22.8
2020-Aug-06 01:00 080 9 gusting 15 22.8
2020-Aug-06 00:40 070 7 gusting 7 23.3
2020-Aug-06 00:30 080 7 gusting 7 23.3
2020-Aug-06 00:20 070 7 gusting 7 23.9
2020-Aug-06 00:00 060 6 gusting 6 24.4
2020-Aug-05 23:50 080 6 gusting 6 24.4
2020-Aug-05 23:40 070 6 gusting 6 24.4
2020-Aug-05 23:30 080 6 gusting 6 25.0
2020-Aug-05 23:20 080 6 gusting 6 25.0
2020-Aug-05 23:00 060 7 gusting 7 25.6
2020-Aug-05 22:40 110 10 gusting 14 25.6
2020-Aug-05 22:20 120 8 gusting 8 26.7
2020-Aug-05 21:40 220 2 gusting 2 32.2
2020-Aug-05 21:20 327 3 gusting 6 32.6
2020-Aug-05 21:10 235 3 gusting 6 32.4
2020-Aug-05 21:00 286 0 gusting 6 32.6
2020-Aug-05 20:50 288 6 gusting 9 32.3
2020-Aug-05 20:30 273 1 gusting 7 32.5
2020-Aug-05 20:20 321 2 gusting 6 33.3
2020-Aug-05 20:10 293 6 gusting 8 32.9
2020-Aug-05 20:00 263 7 gusting 8 33.1
2020-Aug-05 19:50 317 1 gusting 7 32.9
2020-Aug-05 19:30 259 2 gusting 8 32.1
2020-Aug-05 19:20 262 6 gusting 9 31.8
2020-Aug-05 19:10 192 3 gusting 6 31.8
2020-Aug-05 19:00 238 2 gusting 6 32.1
2020-Aug-05 18:50 225 2 gusting 6 31.8
2020-Aug-05 18:30 157 2 gusting 6 31.1
2020-Aug-05 18:20 175 2 gusting 5 30.8
2020-Aug-05 18:10 188 1 gusting 5 30.3
2020-Aug-05 18:00 220 0 gusting 5 30.2
2020-Aug-05 17:50 205 4 gusting 4 30.1
2020-Aug-05 17:30 226 1 gusting 2 29.9
2020-Aug-05 17:20 216 1 gusting 4 29.7
2020-Aug-05 17:10 202 2 gusting 5 29.7
2020-Aug-05 17:00 192 2 gusting 5 29.6
2020-Aug-05 16:50 198 1 gusting 3 29.7
2020-Aug-05 16:40 227 1 gusting 4 29.3
2020-Aug-05 16:30 29.4
2020-Aug-05 16:20 148 2 gusting 5 28.8
2020-Aug-05 16:10 026 1 gusting 4 28.9
2020-Aug-05 16:00 095 2 gusting 5 28.1
2020-Aug-05 15:50 184 1 gusting 5 27.9
2020-Aug-05 15:30 190 6 gusting 10 27.8
2020-Aug-05 14:10 159 0 gusting 2 26.5
2020-Aug-05 14:00 164 0 gusting 4 26.3
2020-Aug-05 13:50 265 0 gusting 1 26.1
2020-Aug-05 13:40 265 0 gusting 2 25.8
2020-Aug-05 13:30 265 0 gusting 3 25.8
2020-Aug-05 13:20 271 1 gusting 6 25.8
2020-Aug-05 13:10 221 3 gusting 9 26.1
2020-Aug-05 13:00 193 6 gusting 9 26.1
2020-Aug-05 12:50 145 2 gusting 5 26.3
2020-Aug-05 12:40 26.2
2020-Aug-05 12:30 254 2 gusting 2 26.2
2020-Aug-05 12:20 250 1 gusting 5 26.3
2020-Aug-05 12:10 201 2 gusting 8 26.6
2020-Aug-05 12:00 169 7 gusting 8 26.4
2020-Aug-05 11:50 216 3 gusting 3 26.2
2020-Aug-05 11:40 26.0
2020-Aug-05 11:30 26.1
2020-Aug-05 11:20 25.9
2020-Aug-05 11:10 229 1 gusting 10 25.9
2020-Aug-05 11:00 116 2 gusting 2 25.8
2020-Aug-05 10:50 086 2 gusting 4 25.8
2020-Aug-05 10:40 091 0 gusting 5 25.9
2020-Aug-05 10:30 091 1 gusting 5 25.9
2020-Aug-05 10:20 084 3 gusting 4 26.0
2020-Aug-05 10:10 088 0 gusting 6 26.0
2020-Aug-05 10:00 085 3 gusting 6 26.1
2020-Aug-05 09:50 073 3 gusting 6 26.2
2020-Aug-05 09:40 084 1 gusting 5 26.3
2020-Aug-05 09:30 081 1 gusting 4 26.3
2020-Aug-05 09:20 048 4 gusting 4 26.3
2020-Aug-05 09:10 083 2 gusting 5 26.3
2020-Aug-05 09:00 078 1 gusting 3 26.4
2020-Aug-05 08:50 069 1 gusting 3 26.6
2020-Aug-05 08:40 063 1 gusting 2 26.6
2020-Aug-05 08:30 063 0 gusting 1 26.6
2020-Aug-05 08:20 063 0 gusting 2 26.6
2020-Aug-05 08:10 057 0 gusting 2 26.6
2020-Aug-05 08:00 057 0 gusting 2 26.6
2020-Aug-05 07:50 057 0 gusting 2 26.6
2020-Aug-05 07:40 027 1 gusting 3 26.4
2020-Aug-05 07:30 018 0 gusting 3 26.5
2020-Aug-05 07:20 126 0 gusting 1 26.6
2020-Aug-05 07:10 26.5
2020-Aug-05 07:00 26.6
2020-Aug-05 06:50 26.6
2020-Aug-05 06:40 26.6
2020-Aug-05 06:30 26.6
2020-Aug-05 06:20 126 0 gusting 1 26.6
2020-Aug-05 06:10 126 0 gusting 1 26.6
2020-Aug-05 06:00 126 0 gusting 1 26.6
2020-Aug-05 05:50 26.6
2020-Aug-05 05:40 26.7
2020-Aug-05 05:30 26.7
2020-Aug-05 05:20 126 1 gusting 1 26.6
2020-Aug-05 05:10 126 0 gusting 0 26.6
2020-Aug-05 05:00 126 0 gusting 0 26.6
2020-Aug-05 04:50 126 0 gusting 1 26.6
2020-Aug-05 04:40 126 1 gusting 2 26.6
2020-Aug-05 04:30 109 1 gusting 2 26.6
2020-Aug-05 04:20 26.7
2020-Aug-05 04:10 105 1 gusting 3 26.7
2020-Aug-05 04:00 108 0 gusting 2 26.7
2020-Aug-05 03:50 111 0 gusting 2 26.7
2020-Aug-05 03:40 108 1 gusting 3 26.7
2020-Aug-05 03:30 127 2 gusting 3 26.7
2020-Aug-05 03:20 113 1 gusting 3 26.8
2020-Aug-05 03:10 107 1 gusting 2 26.9
2020-Aug-05 03:00 108 2 gusting 3 26.9
2020-Aug-05 02:50 103 2 gusting 5 26.9
2020-Aug-05 02:40 111 1 gusting 6 26.9
2020-Aug-05 02:30 086 3 gusting 6 26.9
2020-Aug-05 02:20 096 3 gusting 6 26.9
2020-Aug-05 02:10 109 2 gusting 6 26.9
2020-Aug-05 02:00 094 3 gusting 6 26.8
2020-Aug-05 01:50 096 3 gusting 7 26.8
2020-Aug-05 01:40 098 3 gusting 7 26.9
2020-Aug-05 01:30 095 2 gusting 7 26.9
2020-Aug-05 01:20 078 6 gusting 7 27.0
2020-Aug-05 01:10 080 6 gusting 7 27.2
2020-Aug-05 01:00 088 1 gusting 9 27.4